Location: Cosy Dell
(34.2789°N, 117.4537°W)
Time: 19:54:43
(UTC+00:00)

CZ-4C R/B - Pass Details

Date: 29 October 2020
Orbit: 623 x 1378 km, 63.4° (Epoch: 03 December)

Event Time Altitude Azimuth Distance (km) Brightness Sun altitude
Rises 04:44:29 0° 332° (NNW) 3,941 6.1 -46.6°
Reaches altitude 10° 04:47:05 10° 336° (NNW) 3,077 5.4 -47.1°
Enters shadow 04:48:07 15° 338° (NNW) 2,745 5.1 -47.3°
